Garden City, KS

8:45 AM CDT on July 28, 2017 (GMT -0500)
Garden City Regional

Weather History for KGCK - October, 2013

Change the Weather History Date:

Saturday, October 26, 2013

  Actual Average Record
Temperature  
Mean Temperature 51 °F 51 °F  
Max Temperature 62 °F 66 °F 88 °F (1952)
Min Temperature 40 °F 37 °F 22 °F (2012)
Degree Days  
Heating Degree Days 14 14  
Month to date heating degree days 280 244  
Since 1 July heating degree days 298 316  
Cooling Degree Days 0 0  
Month to date cooling degree days 19 18  
Year to date cooling degree days 1591 1296  
Growing Degree Days 2 (Base 50)    
Moisture  
Dew Point 33 °F    
Average Humidity 58    
Maximum Humidity 92    
Minimum Humidity 23    
Precipitation  
Precipitation 0.00 in 0.04 in 0.89 in (2006)
Month to date precipitation 1.07 1.14  
Year to date precipitation 13.66 18.26  
Sea Level Pressure  
Sea Level Pressure 30.16 in    
Wind  
Wind Speed 12 mph (NE)    
Max Wind Speed 28 mph    
Max Gust Speed 35 mph    
Visibility 10 miles    
Events      
T = Trace of Precipitation, MM = Missing Value Source: NWS Daily Summary

Daily Weather History Graph

Daily Weather History Graph

Search for Another Location

Airport or City:

Trip Planner

Search our weather history database for the weather conditions in past years. The results will help you decide how hot, cold, wet, or windy it might be!

Date:

Astronomy

Oct. 26, 2013 Rise Set
Actual Time 8:02 AM CDT 6:50 PM CDT
Civil Twilight 7:35 AM CDT 7:17 PM CDT
Nautical Twilight 7:04 AM CDT 7:48 PM CDT
Astronomical Twilight 6:34 AM CDT 8:18 PM CDT
Moon 12:14 AM CDT (10/26) 2:18 PM CDT (10/26)
Length of Visible Light 11h 41m
Length of Day
10h 47m
Waning Gibbous, 53% of the Moon is Illuminated
Oct 26
Waning Gibbous
Oct 26
Last Quarter
Nov 3
New
Nov 9
First Quarter
Nov 17
Full

Hourly Weather History & Observations

Time (CDT) Temp. Windchill Dew Point Humidity Pressure Visibility Wind Dir Wind Speed Gust Speed Precip Events Conditions
12:54 AM 50.0 °F - 43.0 °F 77% 30.06 in 10.0 mi SSE 4.6 mph - N/A   Clear
1:54 AM 50.0 °F - 44.1 °F 80% 30.04 in 10.0 mi South 5.8 mph - N/A   Clear
2:54 AM 48.9 °F - 43.0 °F 80% 30.03 in 10.0 mi SSE 3.5 mph - N/A   Partly Cloudy
3:54 AM 48.9 °F - 44.1 °F 83% 30.02 in 10.0 mi SSE 3.5 mph - N/A   Clear
4:54 AM 48.0 °F - 44.1 °F 86% 30.03 in 10.0 mi Calm Calm - N/A   Clear
5:54 AM 42.1 °F 37.1 °F 39.9 °F 92% 30.06 in 8.0 mi North 8.1 mph - N/A   Clear
6:54 AM 45.0 °F 38.9 °F 42.1 °F 90% 30.08 in 10.0 mi North 12.7 mph - N/A   Clear
7:54 AM 46.9 °F - 39.0 °F 74% 30.12 in 10.0 mi NNE 21.9 mph - N/A   Clear
8:54 AM 46.9 °F - 36.0 °F 66% 30.16 in 10.0 mi NNE 21.9 mph - N/A   Clear
9:54 AM 51.1 °F - 35.1 °F 54% 30.20 in 10.0 mi NNE 24.2 mph 34.5 mph N/A   Clear
10:54 AM 52.0 °F - 35.1 °F 53% 30.23 in 10.0 mi NNE 21.9 mph 28.8 mph N/A   Clear
11:54 AM 51.1 °F - 35.1 °F 54% 30.26 in 10.0 mi NNE 15.0 mph - N/A   Clear
12:54 PM 57.9 °F - 33.1 °F 39% 30.25 in 10.0 mi NNE 25.3 mph 31.1 mph N/A   Clear
1:54 PM 60.1 °F - 30.9 °F 33% 30.24 in 10.0 mi NNE 18.4 mph 25.3 mph N/A   Clear
2:54 PM 61.0 °F - 28.0 °F 29% 30.22 in 10.0 mi NNE 19.6 mph - N/A   Clear
3:54 PM 61.0 °F - 25.0 °F 25% 30.21 in 10.0 mi NE 15.0 mph - N/A   Clear
4:54 PM 61.0 °F - 23.0 °F 23% 30.20 in 10.0 mi NNE 17.3 mph - N/A   Clear
5:54 PM 59.0 °F - 25.0 °F 27% 30.21 in 10.0 mi NNE 10.4 mph - N/A   Clear
6:54 PM 52.0 °F - 27.0 °F 38% 30.22 in 10.0 mi NNE 6.9 mph - N/A   Clear
7:54 PM 50.0 °F - 26.1 °F 39% 30.22 in 10.0 mi NE 4.6 mph - N/A   Clear
8:54 PM 48.9 °F - 25.0 °F 39% 30.22 in 10.0 mi East 3.5 mph - N/A   Clear
9:54 PM 48.0 °F - 24.1 °F 39% 30.21 in 10.0 mi SE 3.5 mph - N/A   Clear
10:54 PM 42.1 °F 38.4 °F 27.0 °F 55% 30.22 in 10.0 mi SSW 5.8 mph - N/A   Clear
11:54 PM 41.0 °F 38.0 °F 27.0 °F 57% 30.21 in 10.0 mi SW 4.6 mph - N/A   Clear